owner,sensor,date,latitude,longitude,vertical_datum,wind_speed,wind_to_direction,wind_speed_of_gust,qcFlag 
DISL,ioos:station:DISL:KATA:1,2019-06-01T00:00:00Z,30.2583,-88.2131,0.0,6.9,232.0,99.0,'11111222,11111222,11144222' 
DISL,ioos:station:DISL:KATA:1,2019-06-01T00:30:00Z,30.2583,-88.2131,0.0,7.5,235.0,99.0,'11111222,11111222,11144222' 
DISL,ioos:station:DISL:KATA:1,2019-06-01T00:50:00Z,30.2583,-88.2131,0.0,6.95,238.6,-9999.0,'11111222,11111222,99999222' 
DISL,ioos:station:DISL:KATA:1,2019-06-01T01:00:00Z,30.2583,-88.2131,0.0,7.1,239.0,99.0,'11111222,11111222,11144222' 
DISL,ioos:station:DISL:KATA:1,2019-06-01T01:30:00Z,30.2583,-88.2131,0.0,7.1,241.0,99.0,'11111222,11111222,11144222' 
DISL,ioos:station:DISL:KATA:1,2019-06-01T01:50:00Z,30.2583,-88.2131,0.0,7.18,242.6,-9999.0,'11111222,11111222,99999222' 
DISL,ioos:station:DISL:KATA:1,2019-06-01T02:00:00Z,30.2583,-88.2131,0.0,7.0,245.0,99.0,'11111222,11111222,11144222' 
DISL,ioos:station:DISL:KATA:1,2019-06-01T02:30:00Z,30.2583,-88.2131,0.0,6.0,250.0,99.0,'11111222,11111222,11144222' 
DISL,ioos:station:DISL:KATA:1,2019-06-01T02:50:00Z,30.2583,-88.2131,0.0,6.08,247.9,-9999.0,'11111222,11111222,99999222' 
DISL,ioos:station:DISL:KATA:1,2019-06-01T03:00:00Z,30.2583,-88.2131,0.0,5.8,251.0,99.0,'11111222,11111222,11144222' 
DISL,ioos:station:DISL:KATA:1,2019-06-01T03:30:00Z,30.2583,-88.2131,0.0,5.5,255.0,99.0,'11111222,11111222,11144222' 
DISL,ioos:station:DISL:KATA:1,2019-06-01T03:50:00Z,30.2583,-88.2131,0.0,5.86,248.4,-9999.0,'11111222,11111222,99999222' 
DISL,ioos:station:DISL:KATA:1,2019-06-01T04:00:00Z,30.2583,-88.2131,0.0,6.1,248.0,99.0,'11111222,11111222,11144222' 
DISL,ioos:station:DISL:KATA:1,2019-06-01T04:30:00Z,30.2583,-88.2131,0.0,6.4,247.0,99.0,'11111222,11111222,11144222' 
DISL,ioos:station:DISL:KATA:1,2019-06-01T04:50:00Z,30.2583,-88.2131,0.0,6.25,247.9,-9999.0,'11111222,11111222,99999222' 
DISL,ioos:station:DISL:KATA:1,2019-06-01T05:00:00Z,30.2583,-88.2131,0.0,6.0,254.0,99.0,'11111222,11111222,11144222' 
DISL,ioos:station:DISL:KATA:1,2019-06-01T05:30:00Z,30.2583,-88.2131,0.0,6.3,256.0,99.0,'11111222,11111222,11144222' 
DISL,ioos:station:DISL:KATA:1,2019-06-01T05:50:00Z,30.2583,-88.2131,0.0,5.99,260.5,-9999.0,'11111222,11111222,99999222' 
DISL,ioos:station:DISL:KATA:1,2019-06-01T06:00:00Z,30.2583,-88.2131,0.0,6.0,257.0,99.0,'11111222,11111222,11144222' 
DISL,ioos:station:DISL:KATA:1,2019-06-01T06:30:00Z,30.2583,-88.2131,0.0,5.9,264.0,99.0,'11111222,11111222,11144222' 
DISL,ioos:station:DISL:KATA:1,2019-06-01T06:50:00Z,30.2583,-88.2131,0.0,6.76,263.2,-9999.0,'11111222,11111222,99999222' 
DISL,ioos:station:DISL:KATA:1,2019-06-01T07:00:00Z,30.2583,-88.2131,0.0,6.8,260.0,99.0,'11111222,11111222,11144222' 
DISL,ioos:station:DISL:KATA:1,2019-06-01T07:30:00Z,30.2583,-88.2131,0.0,6.9,290.0,99.0,'11111222,11111222,11144222' 
DISL,ioos:station:DISL:KATA:1,2019-06-01T07:50:00Z,30.2583,-88.2131,0.0,9.89,350.8,-9999.0,'11111222,11111222,99999222' 
DISL,ioos:station:DISL:KATA:1,2019-06-01T08:00:00Z,30.2583,-88.2131,0.0,7.9,11.0,99.0,'11111222,11111222,11144222' 
DISL,ioos:station:DISL:KATA:1,2019-06-01T08:30:00Z,30.2583,-88.2131,0.0,9.3,180.0,99.0,'11111222,11111222,11144222' 
DISL,ioos:station:DISL:KATA:1,2019-06-01T08:50:00Z,30.2583,-88.2131,0.0,2.12,82.2,-9999.0,'11111222,11111222,99999222' 
DISL,ioos:station:DISL:KATA:1,2019-06-01T09:00:00Z,30.2583,-88.2131,0.0,6.5,16.0,99.0,'11111222,11111222,11144222' 
DISL,ioos:station:DISL:KATA:1,2019-06-01T09:30:00Z,30.2583,-88.2131,0.0,1.9,8.0,99.0,'11111222,11111222,11144222' 
DISL,ioos:station:DISL:KATA:1,2019-06-01T09:50:00Z,30.2583,-88.2131,0.0,2.23,314.6,-9999.0,'11111222,11111222,99999222' 
DISL,ioos:station:DISL:KATA:1,2019-06-01T10:00:00Z,30.2583,-88.2131,0.0,2.7,288.0,99.0,'11111222,11111222,11144222' 
DISL,ioos:station:DISL:KATA:1,2019-06-01T10:30:00Z,30.2583,-88.2131,0.0,4.2,289.0,99.0,'11111222,11111222,11144222' 
DISL,ioos:station:DISL:KATA:1,2019-06-01T10:50:00Z,30.2583,-88.2131,0.0,4.72,285.0,-9999.0,'11111222,11111222,99999222' 
DISL,ioos:station:DISL:KATA:1,2019-06-01T11:00:00Z,30.2583,-88.2131,0.0,4.6,284.0,99.0,'11111222,11111222,11144222' 
DISL,ioos:station:DISL:KATA:1,2019-06-01T11:30:00Z,30.2583,-88.2131,0.0,4.2,280.0,99.0,'11111222,11111222,11144222' 
DISL,ioos:station:DISL:KATA:1,2019-06-01T11:50:00Z,30.2583,-88.2131,0.0,5.14,292.7,-9999.0,'11111222,11111222,99999222' 
DISL,ioos:station:DISL:KATA:1,2019-06-01T12:00:00Z,30.2583,-88.2131,0.0,6.1,299.0,99.0,'11111222,11111222,11144222' 
DISL,ioos:station:DISL:KATA:1,2019-06-01T12:30:00Z,30.2583,-88.2131,0.0,7.0,302.0,99.0,'11111222,11111222,11144222' 
DISL,ioos:station:DISL:KATA:1,2019-06-01T12:50:00Z,30.2583,-88.2131,0.0,6.52,294.9,-9999.0,'11111222,11111222,99999222' 
DISL,ioos:station:DISL:KATA:1,2019-06-01T13:00:00Z,30.2583,-88.2131,0.0,5.9,290.0,99.0,'11111222,11111222,11144222' 
DISL,ioos:station:DISL:KATA:1,2019-06-01T13:30:00Z,30.2583,-88.2131,0.0,5.3,302.0,99.0,'11111222,11111222,11144222' 
DISL,ioos:station:DISL:KATA:1,2019-06-01T13:50:00Z,30.2583,-88.2131,0.0,4.47,313.9,-9999.0,'11111222,11111222,99999222' 
DISL,ioos:station:DISL:KATA:1,2019-06-01T14:00:00Z,30.2583,-88.2131,0.0,3.9,313.0,99.0,'11111222,11111222,11144222' 
DISL,ioos:station:DISL:KATA:1,2019-06-01T14:30:00Z,30.2583,-88.2131,0.0,2.6,307.0,99.0,'11111222,11111222,11144222' 
DISL,ioos:station:DISL:KATA:1,2019-06-01T14:50:00Z,30.2583,-88.2131,0.0,2.95,298.8,-9999.0,'11111222,11111222,99999222' 
DISL,ioos:station:DISL:KATA:1,2019-06-01T15:00:00Z,30.2583,-88.2131,0.0,2.5,304.0,99.0,'11111222,11111222,11144222' 
DISL,ioos:station:DISL:KATA:1,2019-06-01T15:30:00Z,30.2583,-88.2131,0.0,2.5,288.0,99.0,'11111222,11111222,11144222' 
DISL,ioos:station:DISL:KATA:1,2019-06-01T15:50:00Z,30.2583,-88.2131,0.0,2.51,287.0,-9999.0,'11111222,11111222,99999222' 
DISL,ioos:station:DISL:KATA:1,2019-06-01T16:00:00Z,30.2583,-88.2131,0.0,2.6,282.0,99.0,'11111222,11111222,11144222' 
DISL,ioos:station:DISL:KATA:1,2019-06-01T16:30:00Z,30.2583,-88.2131,0.0,3.2,280.0,99.0,'11111222,11111222,11144222' 
DISL,ioos:station:DISL:KATA:1,2019-06-01T16:50:00Z,30.2583,-88.2131,0.0,3.06,268.1,-9999.0,'11111222,11111222,99999222' 
DISL,ioos:station:DISL:KATA:1,2019-06-01T17:00:00Z,30.2583,-88.2131,0.0,3.3,260.0,99.0,'11111222,11111222,11144222' 
DISL,ioos:station:DISL:KATA:1,2019-06-01T17:30:00Z,30.2583,-88.2131,0.0,3.6,249.0,99.0,'11111222,11111222,11144222' 
DISL,ioos:station:DISL:KATA:1,2019-06-01T17:50:00Z,30.2583,-88.2131,0.0,4.47,237.6,-9999.0,'11111222,11111222,99999222' 
DISL,ioos:station:DISL:KATA:1,2019-06-01T18:00:00Z,30.2583,-88.2131,0.0,5.4,231.0,99.0,'11111222,11111222,11144222' 
DISL,ioos:station:DISL:KATA:1,2019-06-01T18:30:00Z,30.2583,-88.2131,0.0,5.8,237.0,99.0,'11111222,11111222,11144222' 
DISL,ioos:station:DISL:KATA:1,2019-06-01T18:50:00Z,30.2583,-88.2131,0.0,5.51,234.7,-9999.0,'11111222,11111222,99999222' 
DISL,ioos:station:DISL:KATA:1,2019-06-01T19:00:00Z,30.2583,-88.2131,0.0,5.9,239.0,99.0,'11111222,11111222,11144222' 
DISL,ioos:station:DISL:KATA:1,2019-06-01T19:30:00Z,30.2583,-88.2131,0.0,4.7,235.0,99.0,'11111222,11111222,11144222' 
DISL,ioos:station:DISL:KATA:1,2019-06-01T19:50:00Z,30.2583,-88.2131,0.0,5.66,238.7,-9999.0,'11111222,11111222,99999222' 
DISL,ioos:station:DISL:KATA:1,2019-06-01T20:00:00Z,30.2583,-88.2131,0.0,6.6,237.0,99.0,'11111222,11111222,11144222' 
DISL,ioos:station:DISL:KATA:1,2019-06-01T20:30:00Z,30.2583,-88.2131,0.0,7.1,247.0,99.0,'11111222,11111222,11144222' 
DISL,ioos:station:DISL:KATA:1,2019-06-01T20:50:00Z,30.2583,-88.2131,0.0,6.34,252.4,-9999.0,'11111222,11111222,99999222' 
DISL,ioos:station:DISL:KATA:1,2019-06-01T21:00:00Z,30.2583,-88.2131,0.0,6.7,273.0,99.0,'11111222,11111222,11144222' 
DISL,ioos:station:DISL:KATA:1,2019-06-01T21:30:00Z,30.2583,-88.2131,0.0,6.8,10.0,99.0,'11111222,11111222,11144222' 
DISL,ioos:station:DISL:KATA:1,2019-06-01T21:50:00Z,30.2583,-88.2131,0.0,4.38,17.02,-9999.0,'11111222,11111222,99999222' 
DISL,ioos:station:DISL:KATA:1,2019-06-01T22:00:00Z,30.2583,-88.2131,0.0,3.4,17.0,99.0,'11111222,11111222,11144222' 
DISL,ioos:station:DISL:KATA:1,2019-06-01T22:30:00Z,30.2583,-88.2131,0.0,1.7,23.0,99.0,'11111222,11111222,11144222' 
DISL,ioos:station:DISL:KATA:1,2019-06-01T22:50:00Z,30.2583,-88.2131,0.0,1.57,339.8,-9999.0,'11111222,11111222,99999222' 
DISL,ioos:station:DISL:KATA:1,2019-06-01T23:00:00Z,30.2583,-88.2131,0.0,1.4,346.0,99.0,'11111222,11111222,11144222' 
DISL,ioos:station:DISL:KATA:1,2019-06-01T23:30:00Z,30.2583,-88.2131,0.0,1.1,351.0,99.0,'11111222,11111222,11144222' 
DISL,ioos:station:DISL:KATA:1,2019-06-01T23:50:00Z,30.2583,-88.2131,0.0,0.67,46.79,-9999.0,'11111222,11111222,99999222' 
DISL,ioos:station:DISL:KATA:1,2019-06-02T00:00:00Z,30.2583,-88.2131,0.0,1.0,73.0,99.0,'11111222,11111222,11144222' 
DISL,ioos:station:DISL:KATA:1,2019-06-02T00:30:00Z,30.2583,-88.2131,0.0,1.3,100.0,99.0,'11111222,11111222,11144222' 
DISL,ioos:station:DISL:KATA:1,2019-06-02T00:50:00Z,30.2583,-88.2131,0.0,1.94,142.4,-9999.0,'11111222,11111222,99999222' 
DISL,ioos:station:DISL:KATA:1,2019-06-02T01:00:00Z,30.2583,-88.2131,0.0,1.9,158.0,99.0,'11111222,11111222,11144222' 
DISL,ioos:station:DISL:KATA:1,2019-06-02T01:30:00Z,30.2583,-88.2131,0.0,3.2,233.0,99.0,'11111222,11111222,11144222' 
DISL,ioos:station:DISL:KATA:1,2019-06-02T01:50:00Z,30.2583,-88.2131,0.0,3.53,207.5,-9999.0,'11111222,11111222,99999222' 
DISL,ioos:station:DISL:KATA:1,2019-06-02T02:00:00Z,30.2583,-88.2131,0.0,3.1,223.0,99.0,'11111222,11111222,11144222' 
DISL,ioos:station:DISL:KATA:1,2019-06-02T02:30:00Z,30.2583,-88.2131,0.0,5.5,238.0,99.0,'11111222,11111222,11144222' 
DISL,ioos:station:DISL:KATA:1,2019-06-02T02:50:00Z,30.2583,-88.2131,0.0,5.95,231.7,-9999.0,'11111222,11111222,99999222' 
DISL,ioos:station:DISL:KATA:1,2019-06-02T03:00:00Z,30.2583,-88.2131,0.0,5.7,213.0,99.0,'11111222,11111222,11144222' 
DISL,ioos:station:DISL:KATA:1,2019-06-02T03:30:00Z,30.2583,-88.2131,0.0,5.4,219.0,99.0,'11111222,11111222,11144222' 
DISL,ioos:station:DISL:KATA:1,2019-06-02T03:50:00Z,30.2583,-88.2131,0.0,4.66,238.1,-9999.0,'11111222,11111222,99999222' 
DISL,ioos:station:DISL:KATA:1,2019-06-02T04:00:00Z,30.2583,-88.2131,0.0,4.2,250.0,99.0,'11111222,11111222,11144222' 
DISL,ioos:station:DISL:KATA:1,2019-06-02T04:30:00Z,30.2583,-88.2131,0.0,4.2,243.0,99.0,'11111222,11111222,11144222' 
DISL,ioos:station:DISL:KATA:1,2019-06-02T04:50:00Z,30.2583,-88.2131,0.0,3.28,249.2,-9999.0,'11111222,11111222,99999222' 
DISL,ioos:station:DISL:KATA:1,2019-06-02T05:00:00Z,30.2583,-88.2131,0.0,3.3,251.0,99.0,'11111222,11111222,11144222' 
DISL,ioos:station:DISL:KATA:1,2019-06-02T05:30:00Z,30.2583,-88.2131,0.0,5.3,247.0,99.0,'11111222,11111222,11144222' 
DISL,ioos:station:DISL:KATA:1,2019-06-02T05:50:00Z,30.2583,-88.2131,0.0,5.23,246.5,-9999.0,'11111222,11111222,99999222' 
DISL,ioos:station:DISL:KATA:1,2019-06-02T06:00:00Z,30.2583,-88.2131,0.0,5.5,249.0,99.0,'11111222,11111222,11144222' 
DISL,ioos:station:DISL:KATA:1,2019-06-02T06:30:00Z,30.2583,-88.2131,0.0,5.1,250.0,99.0,'11111222,11111222,11144222' 
DISL,ioos:station:DISL:KATA:1,2019-06-02T06:50:00Z,30.2583,-88.2131,0.0,4.23,255.4,-9999.0,'11111222,11111222,99999222' 
DISL,ioos:station:DISL:KATA:1,2019-06-02T07:00:00Z,30.2583,-88.2131,0.0,4.0,248.0,99.0,'11111222,11111222,11144222' 
DISL,ioos:station:DISL:KATA:1,2019-06-02T07:30:00Z,30.2583,-88.2131,0.0,3.6,248.0,99.0,'11111222,11111222,11144222' 
DISL,ioos:station:DISL:KATA:1,2019-06-02T07:50:00Z,30.2583,-88.2131,0.0,3.86,278.6,-9999.0,'11111222,11111222,99999222' 
DISL,ioos:station:DISL:KATA:1,2019-06-02T08:00:00Z,30.2583,-88.2131,0.0,3.8,276.0,99.0,'11111222,11111222,11144222' 
DISL,ioos:station:DISL:KATA:1,2019-06-02T08:30:00Z,30.2583,-88.2131,0.0,3.5,271.0,99.0,'11111222,11111222,11144222' 
DISL,ioos:station:DISL:KATA:1,2019-06-02T08:50:00Z,30.2583,-88.2131,0.0,3.21,275.8,-9999.0,'11111222,11111222,99999222' 
DISL,ioos:station:DISL:KATA:1,2019-06-02T09:00:00Z,30.2583,-88.2131,0.0,3.2,274.0,99.0,'11111222,11111222,11144222' 
DISL,ioos:station:DISL:KATA:1,2019-06-02T09:30:00Z,30.2583,-88.2131,0.0,3.1,239.0,99.0,'11111222,11111222,11144222' 
DISL,ioos:station:DISL:KATA:1,2019-06-02T09:50:00Z,30.2583,-88.2131,0.0,2.7,269.4,-9999.0,'11111222,11111222,99999222' 
DISL,ioos:station:DISL:KATA:1,2019-06-02T10:00:00Z,30.2583,-88.2131,0.0,2.0,291.0,99.0,'11111222,11111222,11144222' 
DISL,ioos:station:DISL:KATA:1,2019-06-02T10:30:00Z,30.2583,-88.2131,0.0,2.3,300.0,99.0,'11111222,11111222,11144222' 
DISL,ioos:station:DISL:KATA:1,2019-06-02T10:50:00Z,30.2583,-88.2131,0.0,3.42,329.9,-9999.0,'11111222,11111222,99999222' 
DISL,ioos:station:DISL:KATA:1,2019-06-02T11:00:00Z,30.2583,-88.2131,0.0,3.5,334.0,99.0,'11111222,11111222,11144222' 
DISL,ioos:station:DISL:KATA:1,2019-06-02T11:30:00Z,30.2583,-88.2131,0.0,3.0,337.0,99.0,'11111222,11111222,11144222' 
DISL,ioos:station:DISL:KATA:1,2019-06-02T11:50:00Z,30.2583,-88.2131,0.0,2.87,351.8,-9999.0,'11111222,11111222,99999222' 
DISL,ioos:station:DISL:KATA:1,2019-06-02T12:00:00Z,30.2583,-88.2131,0.0,2.6,0.0,99.0,'11111222,11111222,11144222' 
DISL,ioos:station:DISL:KATA:1,2019-06-02T12:30:00Z,30.2583,-88.2131,0.0,2.7,15.0,99.0,'11111222,11111222,11144222' 
DISL,ioos:station:DISL:KATA:1,2019-06-02T12:50:00Z,30.2583,-88.2131,0.0,3.38,17.21,-9999.0,'11111222,11111222,99999222' 
DISL,ioos:station:DISL:KATA:1,2019-06-02T13:00:00Z,30.2583,-88.2131,0.0,3.9,18.0,99.0,'11111222,11111222,11144222' 
DISL,ioos:station:DISL:KATA:1,2019-06-02T13:30:00Z,30.2583,-88.2131,0.0,3.5,49.0,99.0,'11111222,11111222,11144222' 
DISL,ioos:station:DISL:KATA:1,2019-06-02T13:50:00Z,30.2583,-88.2131,0.0,4.34,62.64,-9999.0,'11111222,11111222,99999222' 
DISL,ioos:station:DISL:KATA:1,2019-06-02T14:00:00Z,30.2583,-88.2131,0.0,4.0,70.0,99.0,'11111222,11111222,11144222' 
DISL,ioos:station:DISL:KATA:1,2019-06-02T14:30:00Z,30.2583,-88.2131,0.0,3.9,61.0,99.0,'11111222,11111222,11144222' 
DISL,ioos:station:DISL:KATA:1,2019-06-02T14:50:00Z,30.2583,-88.2131,0.0,4.07,56.37,-9999.0,'11111222,11111222,99999222' 
DISL,ioos:station:DISL:KATA:1,2019-06-02T15:00:00Z,30.2583,-88.2131,0.0,3.7,62.0,99.0,'11111222,11111222,11144222' 
DISL,ioos:station:DISL:KATA:1,2019-06-02T15:30:00Z,30.2583,-88.2131,0.0,3.8,86.0,99.0,'11111222,11111222,11144222' 
DISL,ioos:station:DISL:KATA:1,2019-06-02T15:50:00Z,30.2583,-88.2131,0.0,3.49,91.6,-9999.0,'11111222,11111222,99999222' 
DISL,ioos:station:DISL:KATA:1,2019-06-02T16:00:00Z,30.2583,-88.2131,0.0,3.3,92.0,99.0,'11111222,11111222,11144222' 
DISL,ioos:station:DISL:KATA:1,2019-06-02T16:30:00Z,30.2583,-88.2131,0.0,2.5,100.0,99.0,'11111222,11111222,11144222' 
DISL,ioos:station:DISL:KATA:1,2019-06-02T16:50:00Z,30.2583,-88.2131,0.0,2.07,158.7,-9999.0,'11111222,11111222,99999222' 
DISL,ioos:station:DISL:KATA:1,2019-06-02T17:00:00Z,30.2583,-88.2131,0.0,3.0,152.0,99.0,'11111222,11111222,11144222' 
DISL,ioos:station:DISL:KATA:1,2019-06-02T17:30:00Z,30.2583,-88.2131,0.0,3.6,153.0,99.0,'11111222,11111222,11144222' 
DISL,ioos:station:DISL:KATA:1,2019-06-02T17:50:00Z,30.2583,-88.2131,0.0,4.03,161.4,-9999.0,'11111222,11111222,99999222' 
DISL,ioos:station:DISL:KATA:1,2019-06-02T18:00:00Z,30.2583,-88.2131,0.0,4.4,159.0,99.0,'11111222,11111222,11144222' 
DISL,ioos:station:DISL:KATA:1,2019-06-02T18:30:00Z,30.2583,-88.2131,0.0,4.3,168.0,99.0,'11111222,11111222,11144222' 
DISL,ioos:station:DISL:KATA:1,2019-06-02T18:50:00Z,30.2583,-88.2131,0.0,4.56,173.4,-9999.0,'11111222,11111222,99999222' 
DISL,ioos:station:DISL:KATA:1,2019-06-02T19:00:00Z,30.2583,-88.2131,0.0,4.5,172.0,99.0,'11111222,11111222,11144222' 
DISL,ioos:station:DISL:KATA:1,2019-06-02T19:30:00Z,30.2583,-88.2131,0.0,4.4,167.0,99.0,'11111222,11111222,11144222' 
DISL,ioos:station:DISL:KATA:1,2019-06-02T19:50:00Z,30.2583,-88.2131,0.0,4.41,178.9,-9999.0,'11111222,11111222,99999222' 
DISL,ioos:station:DISL:KATA:1,2019-06-02T20:00:00Z,30.2583,-88.2131,0.0,4.8,179.0,99.0,'11111222,11111222,11144222' 
DISL,ioos:station:DISL:KATA:1,2019-06-02T20:30:00Z,30.2583,-88.2131,0.0,4.5,187.0,99.0,'11111222,11111222,11144222' 
DISL,ioos:station:DISL:KATA:1,2019-06-02T20:50:00Z,30.2583,-88.2131,0.0,5.1,195.2,-9999.0,'11111222,11111222,99999222' 
DISL,ioos:station:DISL:KATA:1,2019-06-02T21:00:00Z,30.2583,-88.2131,0.0,4.9,201.0,99.0,'11111222,11111222,11144222' 
DISL,ioos:station:DISL:KATA:1,2019-06-02T21:30:00Z,30.2583,-88.2131,0.0,4.1,198.0,99.0,'11111222,11111222,11144222' 
DISL,ioos:station:DISL:KATA:1,2019-06-02T21:50:00Z,30.2583,-88.2131,0.0,4.32,196.1,-9999.0,'11111222,11111222,99999222' 
DISL,ioos:station:DISL:KATA:1,2019-06-02T22:00:00Z,30.2583,-88.2131,0.0,4.2,186.0,99.0,'11111222,11111222,11144222' 
DISL,ioos:station:DISL:KATA:1,2019-06-02T22:30:00Z,30.2583,-88.2131,0.0,4.1,210.0,99.0,'11111222,11111222,11144222' 
DISL,ioos:station:DISL:KATA:1,2019-06-02T22:50:00Z,30.2583,-88.2131,0.0,4.05,200.9,-9999.0,'11111222,11111222,99999222' 
DISL,ioos:station:DISL:KATA:1,2019-06-02T23:00:00Z,30.2583,-88.2131,0.0,4.5,206.0,99.0,'11111222,11111222,11144222' 
DISL,ioos:station:DISL:KATA:1,2019-06-02T23:30:00Z,30.2583,-88.2131,0.0,3.5,208.0,99.0,'11111222,11111222,11144222' 
DISL,ioos:station:DISL:KATA:1,2019-06-02T23:50:00Z,30.2583,-88.2131,0.0,3.51,225.7,-9999.0,'11111222,11111222,99999222' 
DISL,ioos:station:DISL:KATA:1,2019-06-03T00:00:00Z,30.2583,-88.2131,0.0,3.2,220.0,99.0,'11111222,11111222,11144222' 
DISL,ioos:station:DISL:KATA:1,2019-06-03T00:30:00Z,30.2583,-88.2131,0.0,2.9,220.0,99.0,'11111222,11111222,11144222' 
DISL,ioos:station:DISL:KATA:1,2019-06-03T00:50:00Z,30.2583,-88.2131,0.0,2.97,227.7,-9999.0,'11111222,11111222,99999222' 
DISL,ioos:station:DISL:KATA:1,2019-06-03T01:00:00Z,30.2583,-88.2131,0.0,3.3,226.0,99.0,'11111222,11111222,11144222' 
DISL,ioos:station:DISL:KATA:1,2019-06-03T01:30:00Z,30.2583,-88.2131,0.0,4.8,234.0,99.0,'11111222,11111222,11144222' 
DISL,ioos:station:DISL:KATA:1,2019-06-03T01:50:00Z,30.2583,-88.2131,0.0,4.56,237.1,-9999.0,'11111222,11111222,99999222' 
DISL,ioos:station:DISL:KATA:1,2019-06-03T02:00:00Z,30.2583,-88.2131,0.0,4.9,239.0,99.0,'11111222,11111222,11144222' 
DISL,ioos:station:DISL:KATA:1,2019-06-03T02:30:00Z,30.2583,-88.2131,0.0,5.2,248.0,99.0,'11111222,11111222,11144222' 
DISL,ioos:station:DISL:KATA:1,2019-06-03T02:50:00Z,30.2583,-88.2131,0.0,4.79,242.3,-9999.0,'11111222,11111222,99999222' 
DISL,ioos:station:DISL:KATA:1,2019-06-03T03:00:00Z,30.2583,-88.2131,0.0,4.9,246.0,99.0,'11111222,11111222,11144222' 
DISL,ioos:station:DISL:KATA:1,2019-06-03T03:30:00Z,30.2583,-88.2131,0.0,4.4,239.0,99.0,'11111222,11111222,11144222' 
DISL,ioos:station:DISL:KATA:1,2019-06-03T03:50:00Z,30.2583,-88.2131,0.0,3.83,238.2,-9999.0,'11111222,11111222,99999222' 
DISL,ioos:station:DISL:KATA:1,2019-06-03T04:00:00Z,30.2583,-88.2131,0.0,3.9,241.0,99.0,'11111222,11111222,11144222' 
DISL,ioos:station:DISL:KATA:1,2019-06-03T04:30:00Z,30.2583,-88.2131,0.0,3.4,243.0,99.0,'11111222,11111222,11144222' 
DISL,ioos:station:DISL:KATA:1,2019-06-03T04:50:00Z,30.2583,-88.2131,0.0,3.49,244.0,-9999.0,'11111222,11111222,99999222' 
DISL,ioos:station:DISL:KATA:1,2019-06-03T05:00:00Z,30.2583,-88.2131,0.0,3.6,248.0,99.0,'11111222,11111222,11144222' 
DISL,ioos:station:DISL:KATA:1,2019-06-03T05:30:00Z,30.2583,-88.2131,0.0,3.9,256.0,99.0,'11111222,11111222,11144222' 
DISL,ioos:station:DISL:KATA:1,2019-06-03T05:50:00Z,30.2583,-88.2131,0.0,3.89,256.5,-9999.0,'11111222,11111222,99999222' 
DISL,ioos:station:DISL:KATA:1,2019-06-03T06:00:00Z,30.2583,-88.2131,0.0,4.0,261.0,99.0,'11111222,11111222,11144222' 
DISL,ioos:station:DISL:KATA:1,2019-06-03T06:30:00Z,30.2583,-88.2131,0.0,4.1,272.0,99.0,'11111222,11111222,11144222' 
DISL,ioos:station:DISL:KATA:1,2019-06-03T06:50:00Z,30.2583,-88.2131,0.0,4.59,268.9,-9999.0,'11111222,11111222,99999222' 
DISL,ioos:station:DISL:KATA:1,2019-06-03T07:00:00Z,30.2583,-88.2131,0.0,5.0,284.0,99.0,'11111222,11111222,11144222' 
DISL,ioos:station:DISL:KATA:1,2019-06-03T07:30:00Z,30.2583,-88.2131,0.0,5.5,279.0,99.0,'11111222,11111222,11144222' 
DISL,ioos:station:DISL:KATA:1,2019-06-03T07:50:00Z,30.2583,-88.2131,0.0,5.94,278.1,-9999.0,'11111222,11111222,99999222' 
DISL,ioos:station:DISL:KATA:1,2019-06-03T08:00:00Z,30.2583,-88.2131,0.0,6.2,272.0,99.0,'11111222,11111222,11144222' 
DISL,ioos:station:DISL:KATA:1,2019-06-03T08:30:00Z,30.2583,-88.2131,0.0,5.6,285.0,99.0,'11111222,11111222,11144222' 
DISL,ioos:station:DISL:KATA:1,2019-06-03T08:50:00Z,30.2583,-88.2131,0.0,5.36,293.5,-9999.0,'11111222,11111222,99999222' 
DISL,ioos:station:DISL:KATA:1,2019-06-03T09:00:00Z,30.2583,-88.2131,0.0,5.3,296.0,99.0,'11111222,11111222,11144222' 
DISL,ioos:station:DISL:KATA:1,2019-06-03T09:30:00Z,30.2583,-88.2131,0.0,6.0,305.0,99.0,'11111222,11111222,11144222' 
DISL,ioos:station:DISL:KATA:1,2019-06-03T09:50:00Z,30.2583,-88.2131,0.0,5.55,322.5,-9999.0,'11111222,11111222,99999222' 
DISL,ioos:station:DISL:KATA:1,2019-06-03T10:00:00Z,30.2583,-88.2131,0.0,5.5,329.0,99.0,'11111222,11111222,11144222' 
DISL,ioos:station:DISL:KATA:1,2019-06-03T10:30:00Z,30.2583,-88.2131,0.0,5.1,329.0,99.0,'11111222,11111222,11144222' 
DISL,ioos:station:DISL:KATA:1,2019-06-03T10:50:00Z,30.2583,-88.2131,0.0,4.91,336.2,-9999.0,'11111222,11111222,99999222' 
DISL,ioos:station:DISL:KATA:1,2019-06-03T11:00:00Z,30.2583,-88.2131,0.0,4.3,344.0,99.0,'11111222,11111222,11144222' 
DISL,ioos:station:DISL:KATA:1,2019-06-03T11:30:00Z,30.2583,-88.2131,0.0,4.8,359.0,99.0,'11111222,11111222,11144222' 
DISL,ioos:station:DISL:KATA:1,2019-06-03T11:50:00Z,30.2583,-88.2131,0.0,4.53,11.83,-9999.0,'11111222,11111222,99999222' 
DISL,ioos:station:DISL:KATA:1,2019-06-03T12:00:00Z,30.2583,-88.2131,0.0,4.8,28.0,99.0,'11111222,11111222,11144222' 
DISL,ioos:station:DISL:KATA:1,2019-06-03T12:30:00Z,30.2583,-88.2131,0.0,5.4,33.0,99.0,'11111222,11111222,11144222' 
DISL,ioos:station:DISL:KATA:1,2019-06-03T12:50:00Z,30.2583,-88.2131,0.0,5.27,33.81,-9999.0,'11111222,11111222,99999222' 
DISL,ioos:station:DISL:KATA:1,2019-06-03T13:00:00Z,30.2583,-88.2131,0.0,5.5,39.0,99.0,'11111222,11111222,11144222' 
DISL,ioos:station:DISL:KATA:1,2019-06-03T13:30:00Z,30.2583,-88.2131,0.0,4.4,56.0,99.0,'11111222,11111222,11144222' 
DISL,ioos:station:DISL:KATA:1,2019-06-03T13:50:00Z,30.2583,-88.2131,0.0,4.34,59.47,-9999.0,'11111222,11111222,99999222' 
DISL,ioos:station:DISL:KATA:1,2019-06-03T14:00:00Z,30.2583,-88.2131,0.0,4.7,56.0,99.0,'11111222,11111222,11144222' 
DISL,ioos:station:DISL:KATA:1,2019-06-03T14:30:00Z,30.2583,-88.2131,0.0,5.4,59.0,99.0,'11111222,11111222,11144222' 
DISL,ioos:station:DISL:KATA:1,2019-06-03T14:50:00Z,30.2583,-88.2131,0.0,4.47,66.44,-9999.0,'11111222,11111222,99999222' 
DISL,ioos:station:DISL:KATA:1,2019-06-03T15:00:00Z,30.2583,-88.2131,0.0,3.9,64.0,99.0,'11111222,11111222,11144222' 
DISL,ioos:station:DISL:KATA:1,2019-06-03T15:30:00Z,30.2583,-88.2131,0.0,4.6,69.0,99.0,'11111222,11111222,11144222' 
DISL,ioos:station:DISL:KATA:1,2019-06-03T15:50:00Z,30.2583,-88.2131,0.0,4.43,66.35,-9999.0,'11111222,11111222,99999222' 
DISL,ioos:station:DISL:KATA:1,2019-06-03T16:00:00Z,30.2583,-88.2131,0.0,4.1,69.0,99.0,'11111222,11111222,11144222' 
DISL,ioos:station:DISL:KATA:1,2019-06-03T16:30:00Z,30.2583,-88.2131,0.0,4.0,76.0,99.0,'11111222,11111222,11144222' 
DISL,ioos:station:DISL:KATA:1,2019-06-03T16:50:00Z,30.2583,-88.2131,0.0,3.58,80.3,-9999.0,'11111222,11111222,99999222' 
DISL,ioos:station:DISL:KATA:1,2019-06-03T17:00:00Z,30.2583,-88.2131,0.0,3.3,83.0,99.0,'11111222,11111222,11144222' 
DISL,ioos:station:DISL:KATA:1,2019-06-03T17:30:00Z,30.2583,-88.2131,0.0,2.8,71.0,99.0,'11111222,11111222,11144222' 
DISL,ioos:station:DISL:KATA:1,2019-06-03T17:50:00Z,30.2583,-88.2131,0.0,2.46,75.63,-9999.0,'11111222,11111222,99999222' 
DISL,ioos:station:DISL:KATA:1,2019-06-03T18:00:00Z,30.2583,-88.2131,0.0,2.2,95.0,99.0,'11111222,11111222,11144222' 
DISL,ioos:station:DISL:KATA:1,2019-06-03T18:30:00Z,30.2583,-88.2131,0.0,2.4,152.0,99.0,'11111222,11111222,11144222' 
DISL,ioos:station:DISL:KATA:1,2019-06-03T18:50:00Z,30.2583,-88.2131,0.0,3.63,168.3,-9999.0,'11111222,11111222,99999222' 
DISL,ioos:station:DISL:KATA:1,2019-06-03T19:00:00Z,30.2583,-88.2131,0.0,3.8,167.0,99.0,'11111222,11111222,11144222' 